Regional Weather Roundup
Issued by NWS Little Rock, AR

Home | Current Version | Previous Version | Graphics & Text | Print | Product List | Glossary On
Versions: 1 2 3 4 5 6 7 8 9 10 11 12 13 14 15 16 17 18 19 20 21 22 23 24 25 26 27 28 29 30 31 32
000
ASUS44 KLZK 160405
RWRLZK

WEATHER ROUNDUP FOR ARKANSAS
NATIONAL WEATHER SERVICE LITTLE ROCK AR
1000 PM CST FRI DEC 15 2017

NOTE: "FAIR" INDICATES FEW OR NO CLOUDS BELOW 12,000 FEET WITH NO
SIGNIFICANT WEATHER AND/OR OBSTRUCTIONS TO VISIBILITY.

ARZ001-003-010-029-160500-
NORTHWEST ARKANSAS

CITY           SKY/WX    TMP DP  RH WIND       PRES   REMARKS
FAYETTEVILLE   CLEAR     28  24  85 SW3       30.13R
FORT SMITH     CLEAR     35  27  72 SW3       30.16F
HARRISON       CLEAR     38  26  62 CALM      30.11R
BENTONVILLE    CLEAR     33  25  72 S5        30.13S WCI  29
ROGERS         CLEAR     36  27  69 SW9       30.12R
SILOAM SPGS    CLEAR     34  25  69 S7        30.12S WCI  28
HIGHFILL       CLEAR     34  26  72 SW5       30.11S WCI  30
$$

ARZ004-005-016-160500-
NORTH CENTRAL ARKANSAS

CITY           SKY/WX    TMP DP  RH WIND       PRES   REMARKS
BATESVILLE     CLEAR     40  29  64 SW6       30.15S
FLIPPIN        CLEAR     35  25  66 CALM      30.14R
MTN HOME       CLEAR     36  27  69 CALM      30.12R
$$

ARZ040-041-160500-
WEST CENTRAL ARKANSAS

CITY           SKY/WX    TMP DP  RH WIND       PRES   REMARKS
MENA           CLEAR     32  32 100 CALM      30.18S
MOUNT IDA      CLEAR     31  27  85 CALM      30.15F
$$

ARZ009-017-025-026-028-160500-
NORTHEAST ARKANSAS

CITY           SKY/WX    TMP DP  RH WIND       PRES   REMARKS
JONESBORO      CLEAR     39  30  70 SW12      30.16S
NEWPORT        CLEAR     34  29  82 S10       30.16F WCI  26
WALNUT RIDGE   CLEAR     33  28  81 S7        30.15R WCI  27
BLYTHEVILLE    CLEAR     36  29  75 S7        30.17F
$$

ARZ022-023-033-042-044-160500-
CENTRAL ARKANSAS

CITY           SKY/WX    TMP DP  RH WIND       PRES   REMARKS
LITTLE ROCK    CLEAR     39  30  70 S6        30.20F
N LITTLE ROCK    N/A     37  29  73 CALM      30.22F
JACKSONVILLE   CLEAR     31  25  78 CALM      30.17F
SEARCY         CLEAR     31  31 100 SW5       30.18F WCI  26
HOT SPRINGS    CLEAR     40  31  70 CALM      30.19F
RUSSELLVILLE   CLEAR     30  27  88 S5        30.16F WCI  25
CLINTON        FAIR      28  27  93 CALM      30.15F
$$

ARZ036-160500-
EAST ARKANSAS

CITY           SKY/WX    TMP DP  RH WIND       PRES   REMARKS
WEST MEMPHIS   CLEAR     36  29  75 S8        30.20R
$$

ARZ050-053-066-070-073-160500-
SOUTHWEST ARKANSAS

CITY           SKY/WX    TMP DP  RH WIND       PRES   REMARKS
ARKADELPHIA    FAIR      27  23  85 CALM      30.22F
CAMDEN         CLEAR     34  30  86 S3        30.22F
TEXARKANA      CLOUDY    39  30  70 SW6       30.22S
EL DORADO      CLOUDY    31  29  92 CALM      30.24S
DE QUEEN       CLEAR     29  27  92 CALM      30.20S
$$

ARZ056-057-069-160500-
SOUTHEAST ARKANSAS

CITY           SKY/WX    TMP DP  RH WIND       PRES   REMARKS
PINE BLUFF     CLEAR     37  28  70 S5        30.22F
STUTTGART      CLEAR     37  30  75 SW10      30.21S
MONTICELLO     CLEAR     39  27  62 S3        30.23F

$$






USA.gov is the U.S. government's official web portal to all federal, state and local government web resources and services.